Location: Prague
(50.0830°N, 14.4670°E)
Time: 18:23:18
(UTC+01:00)

STARLINK-1719 - Pass Details

Date: 22 September 2020
Orbit: 548 x 550 km, 53.0° (Epoch: 30 October)

Event Time Altitude Azimuth Distance (km) Brightness Sun altitude
Exits shadow 04:02:22 54° 37° (NE) 672 4.2 -25.9°
Drops below altitude 10° 04:05:50 10° 71° (ENE) 1,830 7.2 -25.4°
Sets 04:08:05 0° 74° (ENE) 2,725 8.3 -25.1°
